{"data":{"norad_id":52688,"intl_designator":"2022-053AJ","name":"STARLINK-4032","alt_names":[],"object_type":"PAYLOAD","status":"ACTIVE","operator":null,"country":"US","launch_date":"2022-05-18","launch_site_code":"AFETR","launch_vehicle":null,"mission":null,"orbit_class":"UNKNOWN","rcs_meters":null,"size_class":null,"mass_kg":null,"dimensions":null,"purposes":["comms"],"wikipedia_slug":null,"has_3d_model":false,"image_url":null,"decayed_at":null,"tle_current":{"epoch":"2026-09-20T04:00:03.000096Z","epoch_age_seconds":95133,"freshness":"FRESH","line1":"1 52688U 22053AJ  26263.16670139  .00082286  00000+0  31330-2 0  9990","line2":"2 52688  53.1608 348.8270 0001196 112.1868  95.0114 15.26038160  5782","mean_motion":15.2603816,"eccentricity":0.0001196,"inclination_deg":53.1608,"raan_deg":348.827,"arg_perigee_deg":112.1868,"mean_anomaly_deg":95.0114,"bstar":0.003133,"rev_number":578,"period_min":94.361991576934,"perigee_km":486.84865593505,"apogee_km":488.49095692315,"semimajor_km":6865.8068064291,"source":"CELESTRAK","updated_at":"2026-09-20T09:00:40.106485Z"}}}